SCP
2 2 2 2 1 1 1 1 1 1 1 1 1 1 0 0 0 0 0 0 1 1 1 1 0 0 1 1 1 1 1 1 1 1 1 1 1 1 1 1 1 1 1
2 2 2 2 1 1 1 1 1 1 1 1 1 0 0 0 0 0 0 0 0 1 1 1 1 1 1 1 1 1 1 1 1 1 1 1 1 1 1 1 1 1 1
2 2 2 2 2 1 1 1 1 1 1 0 0 0 0 0 0 0 0 0 0 0 1 1 1 1 1 1 1 1 1 1 1 1 1 1 1 1 1 1 1 1 1
1 2 2 2 2 1 1 1 1 0 0 0 0 0 0 0 0 0 0 0 0 0 0 1 1 1 1 1 1 1 1 1 1 1 1 1 1 1 1 1 1 1 1
1 1 1 2 2 1 1 1 1 1 0 0 0 0 0 0 0 0 0 0 0 0 0 1 1 1 1 1 1 1 1 1 1 1 1 1 1 1 1 1 1 1 1
0 0 1 2 2 1 1 1 1 1 1 1 0 0 0 0 0 0 0 0 0 0 0 0 0 1 1 1 1 1 1 1 1 1 1 1 1 1 1 1 1 1 1
0 0 0 1 1 1 1 1 1 1 1 1 0 0 0 0 0 0 0 0 0 0 0 0 0 0 1 1 1 1 1 1 1 1 1 1 1 1 1 1 1 1 1
0 0 0 0 1 1 1 1 1 1 1 0 0 0 0 0 0 0 0 0 0 0 0 0 0 0 0 1 0 0 0 0 1 1 1 1 1 1 1 1 1 1 1
0 0 0 0 0 1 1 1 1 1 1 0 0 0 0 0 0 0 0 0 0 0 0 0 0 0 0 0 0 0 0 0 1 1 1 1 1 1 1 1 1 1 1
0 0 0 0 0 0 0 1 1 1 1 1 0 0 0 0 0 0 0 0 0 0 0 0 0 0 0 0 0 0 0 0 0 1 1 1 1 1 1 1 1 1 1
0 0 0 0 0 0 0 0 0 0 1 1 0 0 0 0 0 0 0 0 0 0 0 0 0 0 0 0 0 0 0 0 0 1 1 1 1 1 1 1 1 1 1
0 0 0 0 0 0 0 0 0 0 0 0 0 0 0 0 0 0 0 0 0 0 0 0 0 0 0 0 0 0 0 0 0 0 1 1 1 1 1 1 1 1 1
0 0 0 0 0 0 0 0 0 0 0 0 0 0 0 0 0 0 0 0 0 0 0 0 0 0 0 0 0 0 0 0 0 0 0 1 1 1 1 1 1 1 1
0 0 0 0 0 0 0 0 0 0 0 0 0 0 0 0 0 0 0 0 0 0 0 0 0 0 0 0 0 0 0 0 0 0 0 0 0 1 1 1 0 0 0
0 0 0 0 0 0 0 0 0 0 0 0 0 0 0 0 0 0 0 0 0 0 0 0 0 0 0 0 0 0 0 0 0 0 0 0 0 0 0 0 0 0 0
0 0 0 0 0 0 0 0 0 0 0 0 0 0 0 0 0 0 0 0 0 0 0 0 0 0 0 0 0 0 0 0 0 0 0 0 0 0 0 0 0 0 0
0 0 0 0 0 0 0 0 0 0 0 0 0 0 0 0 0 0 0 0 0 0 0 0 0 0 0 0 0 0 0 0 0 0 0 0 0 0 0 0 0 0 0
0 0 0 0 0 0 0 0 0 0 0 0 0 0 0 0 0 0 0 0 0 0 0 0 0 0 0 0 0 0 0 0 0 0 0 0 0 0 0 0 0 0 0
0 0 0 0 0 0 0 0 0 0 0 0 0 0 0 0 0 0 0 0 0 0 0 0 0 0 0 0 0 0 0 0 0 0 0 0 0 0 0 0 0 0 0
0 0 0 0 0 0 0 0 0 0 0 0 0 0 0 0 0 0 0 0 0 0 0 0 0 0 0 0 0 0 0 0 0 0 0 0 0 0 0 0 0 0 0
0 0 0 0 0 0 0 0 0 0 0 0 0 0 0 0 0 0 0 0 0 0 0 0 0 0 0 0 0 0 0 0 0 0 0 0 0 0 0 0 0 0 0
0 0 0 0 0 0 0 0 0 0 0 0 0 0 0 0 0 0 0 0 0 0 0 0 0 0 0 0 0 0 0 0 0 0 0 0 0 0 0 0 0 0 0
0 0 0 0 0 0 0 0 0 0 0 0 0 0 0 0 0 0 0 0 0 0 0 0 0 0 0 0 0 0 0 0 0 0 0 0 0 0 0 0 0 0 0
0 0 0 0 0 0 0 0 0 0 0 0 0 0 0 0 0 0 0 0 0 0 0 0 0 0 0 0 0 0 0 0 0 0 0 0 0 0 0 0 0 0 0
0 0 0 0 0 0 0 0 0 0 0 0 0 0 0 0 0 0 0 0 0 0 0 0 0 0 0 0 0 0 0 0 0 0 0 0 0 0 0 0 0 0 0
0 0 0 0 0 0 0 0 0 0 0 0 0 0 0 0 0 0 0 0 0 0 0 0 0 0 0 0 0 0 0 0 0 0 0 0 0 0 0 0 0 0 0
Wind_Speed
4 4 4 4 4 4 4 4 4 5 4 4 4 4 3 3 2 2 2 6 7 8 8 8 7 7 6 5 4 3 3 3 3 2 2 2 2 1 1 1 1 1 1
4 4 4 4 4 4 4 3 4 4 3 3 4 3 3 2 2 2 2 3 5 6 7 7 7 7 6 5 4 4 3 3 3 2 1 1 1 1 0 1 0 0 1
4 4 4 4 4 4 4 4 4 4 4 4 4 3 3 3 2 2 2 1 2 4 6 7 6 7 7 6 4 4 4 3 3 2 2 1 1 0 1 2 2 2 2
5 4 4 4 4 4 4 3 4 4 4 4 3 3 2 2 2 1 2 2 2 2 4 6 6 7 7 6 5 4 4 4 4 3 2 2 1 1 2 2 2 3 3
6 4 3 4 4 3 3 4 4 3 4 4 4 3 2 2 2 2 1 2 2 2 2 5 7 7 7 6 6 5 5 5 5 4 4 3 3 3 3 3 4 4 4
5 4 3 4 4 3 3 4 4 4 3 4 4 3 2 2 1 1 1 2 2 3 3 3 3 4 7 7 7 6 6 5 5 5 5 4 4 4 4 4 5 5 5
5 4 4 4 4 3 3 4 4 4 3 3 3 3 2 1 1 1 2 2 2 3 3 3 2 2 3 6 8 7 6 6 6 5 6 6 5 5 5 5 5 5 6
5 4 4 4 4 3 4 4 4 3 3 3 2 2 2 2 2 2 1 1 1 2 3 3 3 3 2 2 4 8 7 7 7 6 6 6 6 6 6 6 6 7 7
4 4 4 3 4 3 3 4 3 3 3 3 2 1 1 1 3 2 1 0 1 2 2 2 3 3 3 2 2 5 7 8 8 8 7 6 7 7 7 7 7 7 7
3 4 4 4 3 3 3 4 3 3 2 2 2 2 1 1 1 3 2 1 1 2 2 3 3 2 2 2 3 7 8 9 9 9 9 8 8 8 8 9 9 9 9
3 3 3 3 3 3 3 4 3 3 2 2 2 2 2 2 2 2 4 3 2 2 2 2 2 2 2 2 2 4 8 9 10 10 10 10 10 10 10 10 10 10 9
2 3 3 3 3 3 3 4 4 3 3 3 3 2 2 2 2 2 3 4 4 3 3 3 2 2 2 2 3 7 9 10 11 11 12 11 10 10 11 11 11 11 10
2 3 3 3 3 3 3 3 4 4 3 3 3 3 3 3 3 3 4 5 6 4 3 3 2 3 3 2 3 8 8 10 11 12 13 12 11 10 10 11 11 12 12
2 3 3 3 3 3 4 3 3 4 3 3 4 4 3 4 3 3 4 4 6 4 3 4 3 3 2 2 5 9 5 10 12 13 13 13 11 10 10 11 11 11 11
2 3 3 4 4 4 4 3 3 4 4 4 4 4 4 4 4 3 3 4 4 6 6 4 2 2 3 3 6 5 4 10 13 14 14 14 12 11 11 11 12 12 11
2 3 4 4 4 4 4 4 3 4 4 4 4 4 5 4 4 4 4 4 4 6 7 4 3 4 5 6 9 6 6 13 14 14 14 15 13 12 12 12 12 12 12
3 3 4 4 5 5 5 4 4 4 5 5 5 5 6 5 5 4 4 4 5 5 8 7 4 4 5 6 6 6 6 6 7 13 15 15 14 13 13 12 12 12 12
3 4 4 5 5 5 5 4 5 5 5 6 6 6 6 6 6 5 5 5 5 6 6 9 6 4 6 6 6 7 7 7 6 12 15 16 15 14 13 13 13 13 12
4 4 4 5 5 5 5 5 5 5 6 6 6 7 7 6 7 6 6 6 5 6 5 7 7 5 5 5 6 7 7 6 7 9 13 14 15 14 13 13 13 13 13
4 4 5 5 5 5 6 5 5 5 5 6 6 7 7 7 7 7 7 7 7 6 6 6 7 6 6 5 5 6 6 5 6 7 10 11 13 14 13 13 14 13 13
5 5 5 5 5 5 5 6 5 6 6 6 6 7 8 10 12 10 8 7 7 6 6 6 7 7 6 5 6 5 7 6 6 5 6 6 6 6 7 10 12 13 14
4 5 5 5 6 6 10 13 10 6 6 7 8 8 8 10 11 14 15 14 12 9 8 8 8 8 8 7 6 6 6 6 7 3 5 7 5 6 6 5 11 14 15
5 5 5 6 6 8 13 14 14 8 6 7 7 8 8 8 10 7 11 14 13 16 16 11 10 10 9 8 8 8 8 8 8 5 5 8 5 7 6 7 13 14 14
5 5 6 6 6 8 13 14 14 8 6 7 7 8 8 8 8 9 8 9 9 9 11 9 9 9 9 8 8 9 9 9 8 6 5 8 6 6 6 5 11 13 13
5 5 6 6 6 8 13 14 14 6 6 7 8 8 9 8 13 15 11 10 10 9 12 15 15 14 15 15 12 7 7 7 8 6 4 5 5 5 5 5 7 11 11
6 6 7 6 6 7 12 14 14 5 6 7 7 8 11 12 15 16 10 9 10 9 8 8 10 11 10 11 14 9 7 7 7 6 3 4 5 4 5 4 3 4 5
Wind_Direction
13 8 7 12 10 4 5 360 356 357 358 358 359 5 8 18 35 41 42 41 32 26 22 20 17 14 11 17 33 45 45 49 54 64 67 68 78 77 71 70 80 109 113
14 10 6 7 8 360 358 359 350 351 350 353 350 354 2 10 33 39 47 36 32 25 18 15 14 13 10 9 19 32 40 45 38 38 51 55 64 67 294 250 251 189 196
14 15 9 5 1 355 353 352 350 355 356 355 349 345 356 5 18 32 40 31 21 25 17 11 10 10 7 5 12 22 26 32 23 22 23 10 8 336 268 260 242 236 238
13 13 11 1 355 355 355 350 354 357 356 351 341 330 338 355 2 27 39 37 32 27 14 14 12 9 3 0 5 18 23 24 20 13 10 2 344 316 285 269 258 246 242
10 12 6 359 353 356 1 355 356 358 351 348 333 323 335 344 341 12 36 39 40 36 27 20 14 9 6 6 4 9 11 16 15 7 358 352 342 327 306 285 272 260 252
9 8 3 0 356 1 5 4 353 355 350 341 327 325 313 296 314 36 33 44 39 36 35 29 15 10 11 9 4 2 2 7 7 360 354 345 335 324 314 300 282 270 264
7 10 3 355 359 360 359 359 357 349 351 343 337 329 316 315 49 57 36 33 36 33 32 23 20 16 360 3 0 355 349 347 346 346 344 337 331 322 315 312 299 286 273
6 8 7 357 354 352 353 358 359 348 342 358 347 327 335 336 1 351 360 1 26 31 20 6 8 5 356 353 345 346 341 337 331 329 326 325 321 317 309 309 305 296 288
3 3 359 354 350 350 345 345 357 358 334 333 359 353 353 312 329 297 270 335 24 9 351 349 352 353 346 357 344 335 331 328 322 314 310 310 309 307 307 301 299 297 296
4 2 356 351 349 347 341 334 351 340 329 315 317 319 293 289 285 307 297 300 325 324 333 329 328 322 324 330 325 325 325 320 315 310 304 300 300 298 298 300 296 293 289
3 359 355 350 348 344 339 334 332 333 320 306 301 303 302 300 262 256 283 299 304 286 295 296 287 290 298 302 290 303 312 317 312 307 302 296 295 295 295 294 295 291 287
347 352 352 348 339 335 335 328 321 313 309 306 304 292 285 277 281 274 276 290 292 286 289 275 268 272 275 278 293 309 306 306 308 307 302 294 292 294 294 293 292 293 290
330 338 345 332 321 318 319 318 313 307 296 296 292 286 280 271 274 278 278 282 285 283 271 271 265 272 280 279 293 301 298 300 300 302 300 293 290 293 294 293 290 288 287
309 321 325 317 312 311 310 310 299 297 293 284 284 282 279 275 270 269 266 277 286 277 263 264 273 262 279 282 289 297 289 295 296 297 298 296 288 288 290 289 289 287 286
309 321 317 308 304 302 296 292 287 287 294 279 270 270 268 271 269 262 255 247 265 276 274 264 263 274 293 286 287 281 277 286 290 291 291 295 284 281 281 283 283 284 281
306 305 304 302 302 300 294 285 282 282 283 283 272 267 268 268 273 265 253 251 255 262 270 265 275 280 282 287 286 280 276 287 285 287 286 288 281 276 276 275 275 276 275
294 295 299 299 299 296 291 280 277 281 278 282 280 273 270 269 269 267 256 249 256 257 267 275 271 272 271 276 280 275 272 267 267 278 280 282 278 274 271 269 270 272 273
298 297 297 294 292 293 290 278 274 279 276 276 278 273 272 272 268 267 261 254 256 256 259 274 276 271 268 269 269 270 276 272 264 275 278 279 277 273 267 265 266 266 267
294 294 292 290 292 292 290 276 270 272 272 271 277 274 272 272 271 267 261 259 260 263 258 265 273 271 269 270 273 273 272 270 271 274 276 277 275 274 268 265 264 264 264
288 286 285 286 288 288 289 286 281 278 274 273 276 276 273 270 268 267 265 258 260 260 258 260 267 269 269 265 264 268 274 264 270 277 274 273 273 275 273 268 265 263 262
288 285 287 289 288 286 284 285 281 278 277 280 280 280 277 276 276 274 272 261 256 253 255 258 262 270 269 264 262 266 273 276 268 266 269 265 264 259 259 263 263 260 259
288 289 287 286 285 286 290 292 292 284 282 284 285 285 280 278 278 282 284 283 274 263 256 254 260 258 263 262 266 269 273 275 276 254 263 270 262 257 250 245 255 259 259
286 284 284 283 281 283 290 292 294 293 285 284 282 284 284 283 287 279 283 285 283 279 273 265 260 259 262 259 259 264 261 263 268 267 272 273 263 257 253 258 262 260 260
283 280 282 280 283 286 293 294 296 293 283 279 277 277 279 280 278 281 277 277 269 268 269 267 259 260 263 262 253 259 264 267 271 259 246 267 267 260 264 254 258 262 260
290 286 284 283 282 287 293 294 294 284 282 282 280 280 281 278 282 287 285 280 276 271 275 274 273 274 276 279 280 275 270 268 272 267 241 255 270 274 264 253 255 261 260
289 292 292 287 281 282 290 294 294 284 282 283 282 281 284 285 286 288 284 278 277 274 274 277 276 275 271 272 276 266 261 264 270 274 244 249 270 275 277 258 246 252 254